User: anonymous   Login
Location: Beugnon
(47.6222°N, 3.7850°E)
Time: 12:27:43
(UTC+00:00)
Language:

COSMOS 2406 - Orbit

View from above orbital plane
View from above orbital plane
View from above satellite
View from above satellite

Ground track
Ground track

The orbit data is extracted from the following two-line orbital elements,

1 28352U 04021A   20190.78312868 -.00000026 +00000-0 +11571-4 0  9990
2 28352 071.0016 311.0068 0014800 218.2631 141.7440 14.11665009828521
Epoch (UTC): 08 July 2020 18:47:42
Eccentricity: 0.0014800
inclination: 71.0016°
perigee height: 843 km
apogee height: 864 km
right ascension of ascending node: 311.0068°
argument of perigee: 218.2631°
revolutions per day: 14.11665009
mean anomaly at epoch: 141.7440°
orbit number at epoch: 82852

The dashed part of the orbit path shows where the satellite is in the earth's shadow,  

DLR